Lexington Weather

Lexington, Massachusetts, USA

34°F
4/16/2021 11:06am 
  • Lexington Conditions: Light snow, Mist, Overcast
  • Temperature: 34.0°F / 1.1°CWarmer 0.2°F than last hour.
  • Dew Point: 32.7°FIncreased 0.2°Fsince last hour.
  • Relative Humidity: 95
  • Wind: Wind from N N 2 mph, 10-min avg: 2 mph, gust: 4 mph
  • Barometer: 29.46 inFalling 0.03  inHg/hr Falling Slowly
  • Visibility: 1 mile
  • Snow Today: 1.7 in
  •   

Regional Weather Roundup
for Boston / Norton, MA

        
000
ASUS41 KBOX 091905
RWRBOX

REGIONAL WEATHER ROUNDUP
NATIONAL WEATHER SERVICE BOSTON/NORTON MA
300 PM EDT FRI APR 09 2021

NOTE:  "FAIR" INDICATES FEW OR NO CLOUDS BELOW 12,000 FEET WITH NO 
SIGNIFICANT WEATHER AND/OR OBSTRUCTIONS TO VISIBILITY.

MAZALL-092000-
EASTERN MASSACHUSETTS
  
CITY           SKY/WX    TMP DP  RH WIND       PRES   REMARKS
BOSTON         MOSUNNY   57  44  62 E16       30.13F                  
BEVERLY        SUNNY     57  45  64 SE10      30.13F                  
LAWRENCE       SUNNY     69  45  41 VRB6      30.11F                  
BEDFORD        SUNNY     70  46  42 SE12      30.09F                  
BLUE HILL        N/A     68  42  38 S8        30.10F                  
NORWOOD        SUNNY     70  42  36 CALM      30.10F                  
MARSHFIELD     SUNNY     57  46  67 SE9G15    30.13F                  
PLYMOUTH       SUNNY     65  45  48 E7        30.12F                  
TAUNTON        MOSUNNY   69  46  43 VRB7      30.11F                  
NEW BEDFORD    SUNNY     62  44  51 S12G18    30.13F                  
$$

MAZALL-092000-
CAPE COD AND THE ISLANDS
  
CITY           SKY/WX    TMP DP  RH WIND       PRES   REMARKS
FALMOUTH       NOT AVBL                                               
HYANNIS        SUNNY     56  45  66 S7        30.14F                  
CHATHAM        SUNNY     55  42  61 E9        30.16F                  
PROVINCETOWN   SUNNY     59  45  59 E7        30.15F                  
NANTUCKET      SUNNY     55  44  66 S6        30.15F                  
MARTHAS VNYRD  SUNNY     57  45  64 S9        30.15F                  
$$
 
MAZALL-092000-
CENTRAL AND WESTERN MASSACHUSETTS
  
CITY           SKY/WX    TMP DP  RH WIND       PRES   REMARKS
WORCESTER      SUNNY     67  38  34 SE6       30.10F                  
FITCHBURG      SUNNY     70  41  34 SE13      30.09F                  
ORANGE         SUNNY     70  39  32 SW10      30.09F                  
SPRINGFIELD    PTSUNNY   69  39  34 SW9G17    30.08F                  
WESTFIELD      PTSUNNY   69  40  34 VRB6G17   30.09F                  
NORTH ADAMS    MOSUNNY   73  40  30 SE8G17    30.04F                  
PITTSFIELD     MOSUNNY   69  40  34 S10       30.06F                  
$$
 
RIZALL-092000-
RHODE ISLAND
  
CITY           SKY/WX    TMP DP  RH WIND       PRES   REMARKS
PROVIDENCE     MOSUNNY   60  46  59 SE12      30.13F                  
NEWPORT        SUNNY     53  44  71 S12       30.15F                  
BLOCK ISLAND   SUNNY     48  42  80 S12       30.17F                  
SMITHFIELD     SUNNY     66  46  48 SE10G17   30.11F                  
WESTERLY       MOSUNNY   48  41  76 S9        30.17F                  
$$
 
CTZALL-092000-
CONNECTICUT
  
CITY           SKY/WX    TMP DP  RH WIND       PRES   REMARKS
BRADLEY INTL   PTSUNNY   69  42  37 S3        30.09F                  
HARTFORD       PTSUNNY   68  43  40 S6        30.10F                  
BRIDGEPORT     MOSUNNY   52  46  80 CALM      30.16F                  
DANBURY        MOSUNNY   64  42  44 SE13      30.13F                  
GROTON         MOSUNNY   47  43  86 S7        30.17S                  
NEW HAVEN      MOSUNNY   56  47  71 S7        30.16F                  
CHESTER        FAIR      61  45  55 S8        30.15F                  
MERIDEN        PTSUNNY   60  42  51 S12       30.13F                  
WILLIMANTIC    MOSUNNY   68  41  37 S6        30.11F                  
OXFORD         MOSUNNY   62  45  53 S10       30.14F                  
$$

MEZ002-015-021-024-NHZ003-005-008-011-012-014-VTZ005-008-092000-
NORTHERN NEW ENGLAND
  
CITY           SKY/WX    TMP DP  RH WIND       PRES   REMARKS
PORTLAND ME    MOSUNNY   57  45  64 S13       30.12F                  
BANGOR ME      MOSUNNY   68  44  42 CALM      30.07F                  
CONCORD NH     SUNNY     71  41  33 SE9       30.08F                  
MANCHESTER NH  MOSUNNY   70  39  32 CALM      30.07F                  
NASHUA NH      SUNNY     70  43  37 VRB3      30.09F                  
PORTSMOUTH NH  MOSUNNY   61  43  51 SE12      30.12F                  
JAFFREY NH     SUNNY     69  40  34 VRB6      30.08F                  
KEENE NH       SUNNY     71  42  35 VRB7      30.07F                  
BURLINGTON VT  MOSUNNY   75  40  28 S12G20    30.01F                  
MT. WASHINGTON CLOUDY    46  36  66 SW7         N/A                   
$$

NYZ052-076-092000-
EASTERN NEW YORK
  
CITY           SKY/WX    TMP DP  RH WIND       PRES   REMARKS
ALBANY         PTSUNNY   68  42  38 S15       30.05F                  
NEW YORK CITY  PTSUNNY   54  42  64 S10       30.16F                  
$$
 
ANZALL-092000-
MARINE OBSERVATIONS
  
STATION/POSITION TIME  TEMP    WIND        PRES    VSBY  WAVE
                       AIR SEA DIR/SP/G                  HT/PER
                 (UTC) (F)     (DEG/KT/KT) (MB)    (MI)  (FT/S)
BOSTON BUOY      1850   47 45  130/ 10/ 12 1021.0F         3/ 9
BUZZARDS BAY     1800          220/  9/ 10 1022.8F
NANTUCKET SOUND  1840      47                N/A
MASS BAY-STELLWA 1804   48     150/  8/ 10 1020.4F  1 7/8  3/ 8
ISLE OF SHOALS   1800   47     150/ 17/ 17 1020.3F
S OF BLOCK IS    1826      48                N/A           3/10
$$

......................KEY.........................
  SKY/WX - SKY CONDITION/PRESENT WEATHER
  TMP    - TEMPERATURE IN FAHRENHEIT
  DWPT   - DEWPOINT IN FAHRENHEIT
  RH     - RELATIVE HUMIDITY IN PERCENT
  WIND   - DIRECTION AND SPEED IN MPH
  PRES   - MEAN SEA LEVEL PRESSURE IN INCHES OF HG
  WCI    - WIND CHILL INDEX
  VSB    - VISIBILITY IN MILES
  HX     - HEAT INDEX
  TC     - TEMPERATURE IN CELSIUS
  VRB    - VARIABLE WIND DIRECTION
  N/A    - NOT AVAILABLE
  
      

Other recent Regional Weather Roundups

Fri Apr 16, 10:05am

Fri Apr 16, 9:04am

Fri Apr 16, 8:04am

Fri Apr 16, 7:04am

Fri Apr 16, 6:04am

Fri Apr 16, 5:04am

Fri Apr 16, 4:04am

Fri Apr 16, 3:04am

Fri Apr 16, 2:04am

Fri Apr 16, 1:04am

Fri Apr 16, 12:04am

Thu Apr 15, 11:05pm

Thu Apr 15, 10:04pm

Thu Apr 15, 9:04pm

Thu Apr 15, 8:04pm

Thu Apr 15, 7:05pm

Thu Apr 15, 6:04pm

Thu Apr 15, 5:05pm

Thu Apr 15, 4:04pm

Thu Apr 15, 3:05pm

Thu Apr 15, 2:04pm

Thu Apr 15, 1:05pm

Thu Apr 15, 12:04pm

Thu Apr 15, 11:04am

Thu Apr 15, 10:05am

Thu Apr 15, 9:04am

Thu Apr 15, 8:04am

Thu Apr 15, 7:04am

Thu Apr 15, 6:04am

Thu Apr 15, 5:04am

Thu Apr 15, 4:04am

Thu Apr 15, 3:04am

Thu Apr 15, 2:04am

Thu Apr 15, 1:04am

Thu Apr 15, 12:04am

Wed Apr 14, 11:04pm

Wed Apr 14, 10:04pm

Wed Apr 14, 9:04pm

Wed Apr 14, 8:04pm

Wed Apr 14, 7:04pm

Wed Apr 14, 6:04pm

Wed Apr 14, 5:05pm

Wed Apr 14, 4:04pm

Wed Apr 14, 3:05pm

Wed Apr 14, 2:04pm

Wed Apr 14, 1:05pm

Wed Apr 14, 12:04pm

Wed Apr 14, 11:04am

Wed Apr 14, 10:04am

Wed Apr 14, 9:04am

Wed Apr 14, 8:04am

Wed Apr 14, 7:04am

Wed Apr 14, 6:04am

Wed Apr 14, 5:04am

Wed Apr 14, 4:04am

Wed Apr 14, 3:04am

Wed Apr 14, 2:04am

Wed Apr 14, 1:04am

Wed Apr 14, 12:04am

Tue Apr 13, 11:04pm

Tue Apr 13, 10:05pm

Tue Apr 13, 9:05pm

Tue Apr 13, 8:05pm

Tue Apr 13, 7:04pm

Tue Apr 13, 6:04pm

Tue Apr 13, 5:05pm

Tue Apr 13, 4:04pm

Tue Apr 13, 3:04pm

Tue Apr 13, 2:05pm

Tue Apr 13, 1:04pm

Tue Apr 13, 12:05pm

Tue Apr 13, 11:05am

Tue Apr 13, 10:04am

Tue Apr 13, 9:04am

Tue Apr 13, 8:04am

Tue Apr 13, 7:04am

Tue Apr 13, 6:04am

Tue Apr 13, 5:04am

Tue Apr 13, 4:04am

Tue Apr 13, 3:04am

Tue Apr 13, 2:04am

Tue Apr 13, 1:04am

Tue Apr 13, 12:05am

Mon Apr 12, 11:04pm

Mon Apr 12, 10:04pm

Mon Apr 12, 9:04pm

Mon Apr 12, 8:04pm

Mon Apr 12, 7:05pm

Mon Apr 12, 6:04pm

Mon Apr 12, 5:04pm

Mon Apr 12, 4:04pm

Mon Apr 12, 3:05pm

Mon Apr 12, 2:04pm

Mon Apr 12, 1:05pm

Mon Apr 12, 12:04pm

Mon Apr 12, 11:04am

Mon Apr 12, 10:04am

Mon Apr 12, 9:04am

Mon Apr 12, 8:04am

Mon Apr 12, 7:04am

Mon Apr 12, 6:04am

Mon Apr 12, 5:04am

Mon Apr 12, 4:04am

Mon Apr 12, 3:04am

Mon Apr 12, 2:04am

Mon Apr 12, 1:05am

Mon Apr 12, 12:04am

Sun Apr 11, 11:04pm

Sun Apr 11, 10:04pm

Sun Apr 11, 9:04pm

Sun Apr 11, 8:04pm

Sun Apr 11, 7:04pm

Sun Apr 11, 6:05pm

Sun Apr 11, 5:05pm

Sun Apr 11, 4:04pm

Sun Apr 11, 3:05pm

Sun Apr 11, 2:05pm

Sun Apr 11, 1:05pm

Sun Apr 11, 12:04pm

Sun Apr 11, 11:05am

Sun Apr 11, 10:05am

Sun Apr 11, 9:04am

Sun Apr 11, 8:04am

Sun Apr 11, 7:04am

Sun Apr 11, 6:04am

Sun Apr 11, 5:04am

Sun Apr 11, 4:04am

Sun Apr 11, 3:04am

Sun Apr 11, 2:04am

Sun Apr 11, 1:05am

Sun Apr 11, 12:04am

Sat Apr 10, 11:05pm

Sat Apr 10, 10:04pm

Sat Apr 10, 9:04pm

Sat Apr 10, 8:04pm

Sat Apr 10, 7:05pm

Sat Apr 10, 6:04pm

Sat Apr 10, 5:04pm

Sat Apr 10, 4:04pm

Sat Apr 10, 3:04pm

Sat Apr 10, 2:05pm

Sat Apr 10, 1:04pm

Sat Apr 10, 12:04pm

Sat Apr 10, 11:04am

Sat Apr 10, 10:04am

Sat Apr 10, 9:04am

Sat Apr 10, 8:04am

Sat Apr 10, 7:04am

Sat Apr 10, 6:04am

Sat Apr 10, 5:04am

Sat Apr 10, 4:04am

Sat Apr 10, 3:04am

Sat Apr 10, 2:04am

Sat Apr 10, 1:05am

Sat Apr 10, 12:04am

Fri Apr 9, 11:04pm

Fri Apr 9, 10:05pm

Fri Apr 9, 9:04pm

Fri Apr 9, 8:05pm

Fri Apr 9, 7:05pm

Fri Apr 9, 6:04pm

Fri Apr 9, 5:04pm

Fri Apr 9, 4:05pm

Fri Apr 9, 2:04pm

Fri Apr 9, 1:04pm

Fri Apr 9, 12:04pm

Fri Apr 9, 11:05am

Meta data:

ID: a90bf989-c06c-4cc2-a73d-c70ade34c162
Link: https://api.weather.gov/products/a90bf989-c06c-4cc2-a73d-c70ade34c162